KN6RO Weather Reports


time (UTC)temp
C
wind
direction
speed
KPH
gust
KPH
rain 1hr
cm
rain 24hr
cm
rain mn
cm
humidity
%
barometer
mb
20260906113515 24 249 0.0 1.6 0.00 0.00 0.00 73 1015.0
20260906113012 25 240 0.0 1.6 0.00 0.00 0.00 73 1015.0
20260906112506 24 240 0.0 1.6 0.00 0.00 0.00 72 1015.0
20260906112014 24 240 0.0 1.6 0.00 0.00 0.00 73 1015.0
20260906111513 24 240 0.0 1.6 0.00 0.00 0.00 73 1015.0
20260906111008 24 240 0.0 3.2 0.00 0.00 0.00 73 1015.0
20260906110509 24 242 0.0 3.2 0.00 0.00 0.00 74 1015.1
20260906110018 23 243 1.6 3.2 0.00 0.00 0.00 74 1015.1
20260906105516 24 243 1.6 3.2 0.00 0.00 0.00 73 1015.1
20260906105013 24 307 0.0 0.0 0.00 0.00 0.00 71 1015.1
20260906104528 25 306 0.0 1.6 0.00 0.00 0.00 70 1014.9
20260906104016 25 312 0.0 6.4 0.00 0.00 0.00 69 1014.9
20260906103515 25 301 1.6 6.4 0.00 0.00 0.00 67 1014.7
20260906103027 25 345 3.2 6.4 0.00 0.00 0.00 67 1014.8
20260906102521 25 323 0.0 3.2 0.00 0.00 0.00 67 1014.9
20260906102017 25 245 0.0 6.4 0.00 0.00 0.00 67 1014.9
20260906101520 25 338 1.6 6.4 0.00 0.00 0.00 67 1014.9
20260906101007 25 329 1.6 8.0 0.00 0.00 0.00 67 1014.9
20260906100509 25 325 3.2 8.0 0.00 0.00 0.00 67 1014.9
20260906100022 25 324 3.2 4.8 0.00 0.00 0.00 68 1015.0
20260906095511 25 340 0.0 3.2 0.00 0.00 0.00 69 1014.9
20260906095010 25 255 0.0 1.6 0.00 0.00 0.00 70 1014.9
20260906094518 25 241 0.0 6.4 0.00 0.00 0.00 70 1014.9
20260906094013 25 333 3.2 6.4 0.00 0.00 0.00 70 1014.9
20260906093514 25 314 1.6 6.4 0.00 0.00 0.00 70 1014.9
20260906093030 25 58 1.6 6.4 0.00 0.00 0.00 70 1015.1
20260906092514 25 70 1.6 6.4 0.00 0.00 0.00 70 1015.1
20260906092020 25 242 0.0 4.8 0.00 0.00 0.00 69 1015.0
20260906091528 25 242 0.0 4.8 0.00 0.00 0.00 69 1014.9
20260906091015 25 241 1.6 4.8 0.00 0.00 0.00 69 1014.8
20260906090524 24 252 1.6 4.8 0.00 0.00 0.00 69 1014.9
20260906090023 24 240 0.0 1.6 0.00 0.00 0.00 70 1014.9
20260906085509 25 240 0.0 1.6 0.00 0.00 0.00 69 1014.9
20260906085009 25 255 0.0 3.2 0.00 0.00 0.00 69 1014.9
20260906084518 24 248 0.0 3.2 0.00 0.00 0.00 70 1014.8
20260906084013 24 233 0.0 1.6 0.00 0.00 0.00 69 1014.8
20260906083513 25 233 0.0 1.6 0.00 0.00 0.00 69 1014.7
20260906083025 25 257 0.0 1.6 0.00 0.00 0.00 67 1014.8
20260906082513 25 257 0.0 1.6 0.00 0.00 0.00 66 1014.8
20260906082015 25 256 0.0 1.6 0.00 0.00 0.00 64 1014.8
20260906081505 25 257 0.0 1.6 0.00 0.00 0.00 64 1014.8
20260906081002 25 326 0.0 1.6 0.00 0.00 0.00 64 1014.7
20260906080505 25 245 0.0 3.2 0.00 0.00 0.00 64 1014.7
20260906080006 26 251 1.6 4.8 0.00 0.00 0.00 63 1014.7
20260906075514 25 251 1.6 4.8 0.00 0.00 0.00 64 1014.7
20260906075008 25 232 1.6 4.8 0.00 0.00 0.00 65 1014.6
20260906074513 25 245 1.6 4.8 0.00 0.00 0.00 65 1014.7
20260906074010 25 243 1.6 3.2 0.00 0.00 0.00 66 1014.6
20260906073511 25 250 0.0 3.2 0.00 0.00 0.00 66 1014.7
20260906073020 25 248 1.6 3.2 0.00 0.00 0.00 68 1014.7
20260906072516 25 248 0.0 1.6 0.00 0.00 0.00 68 1014.7
20260906072014 25 258 0.0 1.6 0.00 0.00 0.00 68 1014.7
20260906071528 25 258 0.0 1.6 0.00 0.00 0.00 68 1014.9
20260906071018 25 261 0.0 1.6 0.00 0.00 0.00 68 1014.9
20260906070514 25 262 0.0 1.6 0.00 0.00 0.00 68 1014.9
20260906070006 25 262 0.0 1.6 0.00 0.00 0.00 69 1015.0
20260906065506 25 255 0.0 1.6 0.00 0.00 0.00 69 1014.9
20260906065008 25 255 0.0 1.6 0.00 0.00 0.00 69 1015.0
20260906064508 25 251 0.0 1.6 0.00 0.00 0.00 71 1014.9
20260906064011 25 251 0.0 1.6 0.00 0.00 0.00 70 1014.9
20260906063513 25 251 0.0 1.6 0.00 0.00 0.00 70 1014.9
20260906063015 25 251 0.0 1.6 0.00 0.00 0.00 70 1014.8
20260906062512 25 255 1.6 1.6 0.00 0.00 0.00 69 1014.8
20260906062015 25 262 0.0 1.6 0.00 0.00 0.00 68 1014.9
20260906061523 25 262 0.0 1.6 0.00 0.00 0.00 68 1015.1
20260906061012 24 262 0.0 1.6 0.00 0.00 0.00 69 1015.2
20260906060517 24 257 0.0 1.6 0.00 0.00 0.00 69 1015.3
20260906060028 24 257 0.0 1.6 0.00 0.00 0.00 69 1015.4
20260906055517 24 257 0.0 1.6 0.00 0.00 0.00 70 1015.4
20260906055015 25 257 0.0 1.6 0.00 0.00 0.00 69 1015.4
20260906054542 24 257 0.0 1.6 0.00 0.00 0.00 69 1015.5
20260906054009 25 314 0.0 1.6 0.00 0.00 0.00 69 1015.6
20260906053510 24 315 0.0 1.6 0.00 0.00 0.00 69 1015.7
20260906053010 23 325 1.6 1.6 0.00 0.00 0.00 71 1015.7
20260906052510 23 297 0.0 1.6 0.00 0.00 0.00 72 1015.8
20260906052014 23 248 0.0 1.6 0.00 0.00 0.00 73 1015.8
20260906051518 23 244 0.0 1.6 0.00 0.00 0.00 74 1015.8
20260906051016 23 244 1.6 1.6 0.00 0.00 0.00 76 1015.9
20260906050511 23 244 0.0 1.6 0.00 0.00 0.00 76 1016.0
20260906050027 23 244 0.0 1.6 0.00 0.00 0.00 75 1015.9
20260906045512 23 244 0.0 1.6 0.00 0.00 0.00 74 1015.9
20260906045014 23 244 0.0 1.6 0.00 0.00 0.00 75 1015.9
20260906044531 23 244 0.0 1.6 0.00 0.00 0.00 75 1016.1
20260906044018 23 244 0.0 1.6 0.00 0.00 0.00 75 1016.0
20260906043519 23 244 0.0 1.6 0.00 0.00 0.00 75 1016.0
20260906043032 23 244 0.0 1.6 0.00 0.00 0.00 77 1016.0
20260906042507 23 244 0.0 1.6 0.00 0.00 0.00 78 1016.0
20260906042010 23 244 0.0 1.6 0.00 0.00 0.00 78 1016.0
20260906041514 23 244 0.0 1.6 0.00 0.00 0.00 78 1016.1
20260906041011 23 246 0.0 0.0 0.00 0.00 0.00 77 1016.1
20260906040511 23 246 0.0 0.0 0.00 0.00 0.00 78 1016.1
20260906040034 23 246 0.0 1.6 0.00 0.00 0.00 78 1016.0
20260906035514 23 246 0.0 1.6 0.00 0.00 0.00 78 1016.0
20260906035014 23 246 0.0 1.6 0.00 0.00 0.00 78 1016.1
20260906034524 23 246 0.0 3.2 0.00 0.00 0.00 77 1016.1
20260906034016 23 248 0.0 3.2 0.00 0.00 0.00 76 1016.1
20260906033514 23 246 0.0 3.2 0.00 0.00 0.00 76 1016.1
20260906033040 23 246 0.0 3.2 0.00 0.00 0.00 76 1016.2
20260906032516 23 243 0.0 3.2 0.00 0.00 0.00 76 1016.1
20260906032016 24 240 0.0 3.2 0.00 0.00 0.00 75 1016.1
20260906031531 24 304 0.0 1.6 0.00 0.00 0.00 75 1016.1
20260906031008 23 307 0.0 3.2 0.00 0.00 0.00 77 1016.0
20260906030509 23 311 1.6 3.2 0.00 0.00 0.00 79 1016.1
20260906030019 23 295 0.0 3.2 0.00 0.00 0.00 80 1016.2
20260906025518 23 316 0.0 3.2 0.00 0.00 0.00 80 1016.2
20260906025014 23 249 0.0 3.2 0.00 0.00 0.00 79 1016.3
20260906024523 23 250 0.0 3.2 0.00 0.00 0.00 79 1016.4
20260906024019 24 250 1.6 3.2 0.00 0.00 0.00 77 1016.4
20260906023516 24 236 1.6 3.2 0.00 0.00 0.00 76 1016.7
20260906023028 25 246 0.0 3.2 0.00 0.00 0.00 75 1016.5
20260906022514 25 255 0.0 3.2 0.00 0.00 0.00 74 1016.4
20260906022016 25 250 0.0 1.6 0.00 0.00 0.00 73 1016.4
20260906021531 25 261 0.0 1.6 0.00 0.00 0.00 72 1016.3
20260906021018 25 262 0.0 1.6 0.00 0.00 0.00 72 1016.4
20260906020516 25 262 0.0 1.6 0.00 0.00 0.00 71 1016.4
20260906020033 25 262 0.0 1.6 0.00 0.00 0.00 72 1016.3
20260906015510 25 264 0.0 1.6 0.00 0.00 0.00 73 1016.3
20260906015010 25 264 0.0 1.6 0.00 0.00 0.00 73 1016.1
20260906014529 25 265 0.0 1.6 0.00 0.00 0.00 73 1016.1
20260906014013 25 268 0.0 1.6 0.00 0.00 0.00 74 1016.1
20260906013513 25 268 0.0 1.6 0.00 0.00 0.00 75 1016.0
20260906013023 25 308 0.0 1.6 0.00 0.00 0.00 77 1015.9
20260906012515 25 308 0.0 1.6 0.00 0.00 0.00 77 1015.8
20260906012016 25 308 0.0 1.6 0.00 0.00 0.00 78 1015.6
20260906011527 25 254 0.0 1.6 0.00 0.00 0.00 77 1015.5
20260906011016 25 239 0.0 1.6 0.00 0.00 0.00 75 1015.4
20260906010517 25 239 0.0 1.6 0.00 0.00 0.00 74 1015.2
20260906010032 25 239 0.0 1.6 0.00 0.00 0.00 74 1015.1
20260906005518 25 240 0.0 1.6 0.00 0.00 0.00 73 1015.2
20260906005018 26 240 0.0 3.2 0.00 0.00 0.00 73 1015.3
20260906004540 26 240 1.6 3.2 0.00 0.00 0.00 72 1015.0
20260906004012 26 242 0.0 1.6 0.00 0.00 0.00 73 1014.9
20260906003510 25 241 0.0 3.2 0.00 0.00 0.00 73 1014.8
20260906003016 25 241 1.6 3.2 0.00 0.00 0.00 74 1014.7
20260906002515 25 243 0.0 3.2 0.00 0.00 0.00 74 1014.7
20260906002015 26 244 1.6 3.2 0.00 0.00 0.00 73 1014.7
20260906001525 26 243 1.6 3.2 0.00 0.00 0.00 73 1014.5
20260906001016 26 258 0.0 3.2 0.00 0.00 0.00 72 1014.4
20260906000516 26 278 0.0 3.2 0.00 0.00 0.00 72 1014.4
20260906000031 26 342 0.0 3.2 0.00 0.00 0.00 72 1014.4
20260905235517 26 323 1.6 3.2 0.00 0.00 0.00 73 1014.3
20260905235016 26 302 1.6 3.2 0.00 0.00 0.00 73 1014.4
20260905234531 26 336 0.0 1.6 0.00 0.00 0.00 72 1014.4
20260905234019 26 336 0.0 3.2 0.00 0.00 0.00 71 1014.6
20260905233518 26 340 1.6 4.8 0.00 0.00 0.00 71 1014.7
20260905233033 26 332 1.6 4.8 0.00 0.00 0.00 70 1014.8
20260905232512 26 313 1.6 1.6 0.00 0.00 0.00 69 1014.9
20260905232012 26 250 0.0 1.6 0.00 0.00 0.00 71 1015.1
20260905231518 26 250 0.0 1.6 0.00 0.00 0.00 71 1015.2
20260905231011 27 250 0.0 1.6 0.00 0.00 0.00 70 1015.1
20260905230504 27 250 0.0 1.6 0.00 0.00 0.00 70 1015.0
20260905230004 27 250 0.0 1.6 0.00 0.00 0.00 70 1014.9
20260905225504 27 250 0.0 1.6 0.00 0.00 0.00 66 1015.0
20260905225006 27 250 0.0 1.6 0.00 0.00 0.00 68 1015.0
20260905224511 27 327 0.0 1.6 0.00 0.00 0.00 67 1015.0
20260905224004 27 327 1.6 1.6 0.00 0.00 0.00 66 1015.1
20260905223508 27 266 0.0 1.6 0.00 0.00 0.00 70 1015.3
20260905223013 27 269 0.0 1.6 0.00 0.00 0.00 68 1015.3
20260905222509 27 52 0.0 1.6 0.00 0.00 0.00 69 1015.4
20260905222012 27 52 0.0 3.2 0.00 0.00 0.00 68 1015.4
20260905221518 27 53 1.6 6.4 0.00 0.00 0.00 67 1015.3
20260905221009 28 48 3.2 6.4 0.00 0.00 0.00 66 1015.2
20260905220508 28 67 1.6 9.7 0.00 0.00 0.00 65 1015.3
20260905220016 28 5 3.2 9.7 0.00 0.00 0.00 61 1014.9
20260905215511 28 35 3.2 8.0 0.00 0.00 0.00 64 1014.6
20260905215004 28 56 4.8 11.3 0.00 0.00 0.00 63 1014.5
20260905214504 28 331 4.8 11.3 0.00 0.00 0.00 63 1014.6
20260905214004 27 103 4.8 11.3 0.00 0.00 0.00 67 1014.5
20260905213504 27 342 3.2 11.3 0.00 0.00 0.00 69 1014.5
20260905213009 27 71 6.4 11.3 0.00 0.00 0.00 70 1014.4
20260905212506 27 31 4.8 11.3 0.00 0.00 0.00 71 1014.5
20260905212008 27 45 3.2 11.3 0.00 0.00 0.00 69 1014.7
20260905211535 28 314 4.8 17.7 0.00 0.00 0.00 67 1014.8
20260905211010 28 51 6.4 17.7 0.00 0.00 0.00 66 1014.9
20260905210514 30 293 8.0 16.1 0.00 0.00 0.00 62 1015.0
20260905210033 30 351 4.8 9.7 0.00 0.00 0.00 60 1014.9
20260905205510 31 56 3.2 8.0 0.00 0.00 0.00 58 1015.0
20260905205012 31 316 3.2 6.4 0.00 0.00 0.00 56 1015.0
20260905204517 31 26 3.2 6.4 0.00 0.00 0.00 53 1014.8
20260905204011 31 322 3.2 6.4 0.00 0.00 0.00 55 1014.7
20260905203503 31 35 3.2 8.0 0.00 0.00 0.00 53 1014.7
20260905203005 31 338 3.2 8.0 0.00 0.00 0.00 52 1014.7
20260905202506 31 39 4.8 8.0 0.00 0.00 0.00 51 1014.9
20260905202006 31 333 4.8 8.0 0.00 0.00 0.00 53 1015.0
20260905201510 31 358 3.2 8.0 0.00 0.00 0.00 53 1015.0
20260905201006 31 64 1.6 8.0 0.00 0.00 0.00 55 1015.0
20260905200516 31 20 4.8 8.0 0.00 0.00 0.00 54 1015.0
20260905200021 31 359 1.6 8.0 0.00 0.00 0.00 54 1015.1
20260905195513 31 38 3.2 8.0 0.00 0.00 0.00 53 1015.0
20260905195011 31 345 3.2 6.4 0.00 0.00 0.00 54 1015.0
20260905194523 31 295 3.2 6.4 0.00 0.00 0.00 55 1015.0
20260905194012 31 331 3.2 8.0 0.00 0.00 0.00 54 1015.1
20260905193513 31 316 1.6 8.0 0.00 0.00 0.00 54 1015.2
20260905193019 31 328 4.8 8.0 0.00 0.00 0.00 54 1015.2
20260905192514 31 319 1.6 8.0 0.00 0.00 0.00 55 1015.3
20260905192004 31 57 3.2 8.0 0.00 0.00 0.00 54 1015.6
20260905191508 31 41 4.8 8.0 0.00 0.00 0.00 54 1015.6
20260905191007 31 49 1.6 8.0 0.00 0.00 0.00 55 1015.6
20260905190507 32 20 3.2 9.7 0.00 0.00 0.00 54 1015.7
20260905190012 32 39 4.8 9.7 0.00 0.00 0.00 56 1015.6
20260905185507 32 321 3.2 4.8 0.00 0.00 0.00 56 1015.6
20260905185010 32 334 1.6 4.8 0.00 0.00 0.00 55 1015.6
20260905184526 32 63 1.6 9.7 0.00 0.00 0.00 55 1015.6
20260905184012 32 73 4.8 9.7 0.00 0.00 0.00 55 1015.8
20260905183511 32 96 1.6 8.0 0.00 0.00 0.00 56 1015.7
20260905183025 32 100 3.2 8.0 0.00 0.00 0.00 56 1015.8
20260905182512 32 19 1.6 3.2 0.00 0.00 0.00 52 1015.9
20260905182018 32 109 1.6 9.7 0.00 0.00 0.00 54 1016.0
20260905181523 32 53 4.8 9.7 0.00 0.00 0.00 55 1016.1
20260905181011 32 67 0.0 6.4 0.00 0.00 0.00 56 1016.1
20260905180515 31 42 1.6 8.0 0.00 0.00 0.00 57 1016.3
20260905180008 31 297 3.2 8.0 0.00 0.00 0.00 55 1016.3
20260905175506 31 52 4.8 9.7 0.00 0.00 0.00 56 1016.3
20260905175008 31 55 3.2 9.7 0.00 0.00 0.00 57 1016.4
20260905174513 31 42 6.4 9.7 0.00 0.00 0.00 55 1016.4
20260905174008 31 22 3.2 8.0 0.00 0.00 0.00 55 1016.5
20260905173508 32 63 1.6 4.8 0.00 0.00 0.00 58 1016.5
20260905173016 31 89 0.0 9.7 0.00 0.00 0.00 57 1016.6
20260905172514 31 44 3.2 9.7 0.00 0.00 0.00 59 1016.7
20260905172015 31 64 4.8 9.7 0.00 0.00 0.00 58 1016.7
20260905171524 31 47 3.2 8.0 0.00 0.00 0.00 59 1016.7
20260905171015 31 53 3.2 12.9 0.00 0.00 0.00 57 1016.8
20260905170514 31 27 6.4 12.9 0.00 0.00 0.00 60 1016.8
20260905170025 31 53 4.8 9.7 0.00 0.00 0.00 60 1016.9
20260905165514 31 55 4.8 9.7 0.00 0.00 0.00 60 1016.8
20260905165015 31 57 4.8 8.0 0.00 0.00 0.00 62 1016.9
20260905164515 31 72 4.8 9.7 0.00 0.00 0.00 60 1017.0
20260905164007 31 62 6.4 9.7 0.00 0.00 0.00 60 1017.1
20260905163507 31 36 4.8 9.7 0.00 0.00 0.00 63 1017.1
20260905163013 30 34 3.2 9.7 0.00 0.00 0.00 64 1017.2
20260905162511 30 51 1.6 9.7 0.00 0.00 0.00 64 1017.2
20260905162010 30 90 4.8 9.7 0.00 0.00 0.00 65 1017.4
20260905161519 30 8 3.2 9.7 0.00 0.00 0.00 63 1017.4
20260905161012 30 39 3.2 11.3 0.00 0.00 0.00 64 1017.5
20260905160514 30 46 4.8 11.3 0.00 0.00 0.00 64 1017.5
20260905160027 30 9 4.8 9.7 0.00 0.00 0.00 64 1017.5
20260905155516 30 56 4.8 9.7 0.00 0.00 0.00 64 1017.5
20260905155013 30 32 3.2 9.7 0.00 0.00 0.00 64 1017.6
20260905154527 30 29 4.8 9.7 0.00 0.00 0.00 63 1017.8
20260905154018 30 41 3.2 9.7 0.00 0.00 0.00 65 1017.7
20260905153516 30 351 4.8 11.3 0.00 0.00 0.00 64 1017.7
20260905153026 30 132 6.4 11.3 0.00 0.00 0.00 64 1017.7
20260905152507 30 71 6.4 11.3 0.00 0.00 0.00 64 1017.8
20260905152011 30 43 3.2 4.8 0.00 0.00 0.00 64 1017.8
20260905151520 31 58 1.6 4.8 0.00 0.00 0.00 61 1017.8
20260905151013 31 323 0.0 3.2 0.00 0.00 0.00 64 1017.8
20260905150620 30 323 0.0 3.2 0.00 0.00 0.00 64 1017.8
20260905150024 30 325 0.0 4.8 0.00 0.00 0.00 65 1017.8
20260905145514 31 304 1.6 4.8 0.00 0.00 0.00 62 1017.8
20260905145014 31 256 0.0 1.6 0.00 0.00 0.00 65 1017.8
20260905144528 31 322 0.0 1.6 0.00 0.00 0.00 64 1017.8
20260905144014 30 323 0.0 1.6 0.00 0.00 0.00 64 1017.8
20260905143513 30 324 0.0 1.6 0.00 0.00 0.00 69 1017.9
20260905143028 30 324 0.0 1.6 0.00 0.00 0.00 67 1017.9
20260905142515 30 324 0.0 0.0 0.00 0.00 0.00 67 1017.8
20260905142015 30 324 0.0 1.6 0.00 0.00 0.00 69 1017.8
20260905141511 30 324 0.0 1.6 0.00 0.00 0.00 70 1017.9
20260905141009 30 325 0.0 1.6 0.00 0.00 0.00 70 1017.9
20260905140513 29 325 0.0 3.2 0.00 0.00 0.00 72 1017.9
20260905140014 29 326 1.6 3.2 0.00 0.00 0.00 71 1017.9
20260905135509 29 324 0.0 1.6 0.00 0.00 0.00 70 1017.9
20260905135014 29 324 0.0 1.6 0.00 0.00 0.00 70 1018.0
20260905134523 29 324 0.0 1.6 0.00 0.00 0.00 70 1017.9
20260905134014 30 325 0.0 1.6 0.00 0.00 0.00 69 1018.0
20260905133515 29 323 0.0 1.6 0.00 0.00 0.00 69 1018.0
20260905133035 28 325 0.0 1.6 0.00 0.00 0.00 71 1018.1
20260905132504 28 323 0.0 3.2 0.00 0.00 0.00 72 1018.1
20260905132007 28 323 0.0 3.2 0.00 0.00 0.00 70 1018.1
20260905131510 28 323 0.0 3.2 0.00 0.00 0.00 68 1018.1
20260905131010 28 321 0.0 3.2 0.00 0.00 0.00 66 1018.1
20260905130508 28 302 0.0 3.2 0.00 0.00 0.00 72 1018.1
20260905130011 28 328 0.0 3.2 0.00 0.00 0.00 73 1018.0
20260905125508 28 330 0.0 1.6 0.00 0.00 0.00 72 1018.1
20260905125010 27 250 0.0 1.6 0.00 0.00 0.00 73 1018.0
20260905124519 27 250 0.0 1.6 0.00 0.00 0.00 74 1018.0
20260905124014 26 250 0.0 1.6 0.00 0.00 0.00 75 1018.0
20260905123512 26 250 0.0 1.6 0.00 0.00 0.00 73 1017.9
20260905123026 26 250 0.0 0.0 0.00 0.00 0.00 72 1017.9
20260905122517 26 250 0.0 0.0 0.00 0.00 0.00 71 1017.8
20260905122013 26 250 0.0 0.0 0.00 0.00 0.00 72 1017.7
20260905121527 26 250 0.0 1.6 0.00 0.00 0.00 71 1017.7
20260905121007 26 250 0.0 1.6 0.00 0.00 0.00 71 1017.6
20260905120508 26 250 0.0 1.6 0.00 0.00 0.00 72 1017.5
20260905120007 26 250 0.0 3.2 0.00 0.00 0.00 72 1017.5
20260905115508 26 250 0.0 3.2 0.00 0.00 0.00 71 1017.4
20260905115015 26 250 0.0 3.2 0.00 0.00 0.00 71 1017.4
20260905114515 26 249 0.0 3.2 0.00 0.00 0.00 72 1017.4
20260905114011 26 247 0.0 1.6 0.00 0.00 0.00 71 1017.3